Date String (YYYY-MM-DD hh:mm:ss) UTC,Instrument flags,Ambient pressure (hPa),Sample flow (lpm),Bypass flow (lpm),Sample temperature (°C),Ambient temperature (°C),ASC tube jacket temperature (°C),LED temperature (°C),Box temperature (°C),Sample RH (%),Span deviation,Mass concentration (μg/m³),Mass concentration (μg/m³),Mass concentration (μg/m³)
DateTimeUTC,F1_M11,P_M11,Q1_M11,Q2_M11,T1_M11,T2_M11,T3_M11,T4_M11,T5_M11,U1_M11,ZSPAN_M11,X0_M11,X2_M11,X1_M11
2022-07-27 20:00:00,,0828.9,5.00,0.00,31.7,28.1,00.0,39.7,32.1,34.0,0000.1,0013.30,0007.85,0007.04
2022-07-27 20:01:00,,0828.8,5.00,0.00,31.6,28.3,00.0,39.8,32.2,34.0,0000.4,0013.26,0007.83,0007.03
2022-07-27 20:02:00,,0828.9,5.00,0.00,31.6,28.5,00.0,39.8,32.2,33.3,0000.2,0013.22,0007.87,0007.05
2022-07-27 20:03:00,,0828.8,5.00,0.00,31.6,28.6,00.0,39.8,32.3,33.4,0000.1,0012.76,0007.86,0007.05
2022-07-27 20:04:00,,0828.9,5.00,0.00,31.6,28.4,00.0,39.8,32.3,33.4,0000.1,0012.56,0007.84,0007.04
2022-07-27 20:05:00,,0829.0,5.00,0.00,31.5,27.8,00.0,39.7,32.2,33.8,-000.2,0013.58,0007.86,0007.03
2022-07-27 20:06:00,,0829.0,4.99,0.00,31.4,27.5,00.0,39.7,32.1,34.2,-000.5,0014.60,0007.88,0007.01
2022-07-27 20:07:00,,0829.0,5.00,0.00,31.3,27.5,00.0,39.6,32.0,34.5,-000.7,0014.57,0007.88,0007.01
2022-07-27 20:08:00,,0828.7,4.99,0.00,31.2,27.6,00.0,39.6,31.9,35.0,-000.7,0014.69,0007.85,0007.00
2022-07-27 20:09:00,,0828.8,5.01,0.00,31.3,27.8,00.0,39.6,32.0,34.6,-000.5,0014.97,0007.83,0007.00
2022-07-27 20:10:00,,0828.7,5.00,0.00,31.3,28.0,00.0,39.6,32.0,34.6,-000.4,0014.96,0007.81,0007.00
2022-07-27 20:11:00,,0828.8,4.99,0.00,31.2,28.2,00.0,39.6,32.1,34.6,0000.3,0015.03,0007.83,0007.02
2022-07-27 20:12:00,,0829.2,5.00,0.00,31.2,28.3,00.0,39.6,32.1,34.7,0000.8,0015.28,0007.87,0007.05
2022-07-27 20:13:00,,0829.3,5.00,0.00,31.2,28.5,00.0,39.6,32.2,34.5,0000.7,0015.67,0007.85,0007.04
2022-07-27 20:14:00,,0829.0,5.02,0.00,31.2,28.1,00.0,39.5,32.1,34.6,0000.9,0014.92,0007.89,0007.05
2022-07-27 20:15:00,,0828.7,4.99,0.00,31.2,27.5,00.0,39.5,32.0,34.6,0000.5,0015.71,0007.88,0007.05
2022-07-27 20:16:00,,0829.0,5.01,0.00,31.1,27.3,00.0,39.4,32.0,35.1,0000.9,0015.34,0007.86,0007.04
2022-07-27 20:17:00,,0828.7,5.01,0.00,31.1,27.4,00.0,39.4,31.9,35.6,0001.2,0014.46,0007.80,0007.00
2022-07-27 20:18:00,,0829.1,5.01,0.00,31.3,27.6,00.0,39.4,32.0,34.6,0001.3,0015.28,0007.73,0006.92
2022-07-27 20:19:00,,0828.8,4.99,0.00,31.5,27.8,00.0,39.4,32.1,33.9,0000.7,0015.15,0007.63,0006.84
2022-07-27 20:20:00,,0828.7,4.99,0.00,31.6,28.0,00.0,39.4,32.1,33.8,0000.6,0014.72,0007.57,0006.78
2022-07-27 20:21:00,,0828.7,5.01,0.00,31.6,28.2,00.0,39.4,32.1,33.8,0000.7,0015.01,0007.52,0006.72
2022-07-27 20:22:00,,0828.7,5.00,0.00,31.6,28.4,00.0,39.5,32.2,34.2,0000.7,0015.43,0007.44,0006.65
2022-07-27 20:23:00,,0828.7,5.00,0.00,31.6,28.5,00.0,39.5,32.2,34.1,0000.2,0015.21,0007.37,0006.58
2022-07-27 20:24:00,,0829.2,5.01,0.00,31.6,28.5,00.0,39.6,32.2,33.7,-000.1,0014.69,0007.32,0006.52
2022-07-27 20:25:00,,0829.1,4.99,0.00,31.6,28.0,00.0,39.5,32.2,34.0,0000.0,0014.89,0007.27,0006.45
2022-07-27 20:26:00,,0828.8,5.02,0.00,31.5,27.6,00.0,39.5,32.1,33.7,0000.0,0014.58,0007.29,0006.42
2022-07-27 20:27:00,,0828.7,4.98,0.00,31.4,27.5,00.0,39.5,31.9,33.7,0000.0,0014.05,0007.27,0006.38
2022-07-27 20:28:00,,0828.8,5.01,0.00,31.3,27.5,00.0,39.5,31.8,34.5,0000.0,0013.87,0007.25,0006.37
2022-07-27 20:29:00,,0828.7,4.99,0.00,31.2,27.7,00.0,39.5,31.8,34.8,-000.2,0013.03,0007.27,0006.41
2022-07-27 20:30:00,,0828.7,5.00,0.00,31.1,27.9,00.0,39.5,31.9,34.3,0000.1,0013.60,0007.35,0006.43
2022-07-27 20:31:00,,0828.8,5.00,0.00,31.1,28.1,00.0,39.5,32.0,34.3,0000.2,0013.90,0007.38,0006.46
2022-07-27 20:32:00,,0828.7,4.99,0.00,31.1,28.3,00.0,39.5,32.0,34.1,0000.0,0014.61,0007.42,0006.47
2022-07-27 20:33:00,,0828.7,5.01,0.00,31.1,28.5,00.0,39.5,32.1,34.4,0000.0,0014.42,0007.46,0006.50
2022-07-27 20:34:00,,0829.2,5.01,0.00,31.1,28.2,00.0,39.4,32.1,34.2,-000.4,0014.34,0007.46,0006.52
2022-07-27 20:35:00,,0829.2,4.98,0.00,31.0,27.6,00.0,39.4,32.0,34.4,-000.3,0014.97,0007.51,0006.56
2022-07-27 20:36:00,,0828.8,5.02,0.00,30.9,27.3,00.0,39.3,31.9,34.6,-000.1,0015.30,0007.53,0006.59
2022-07-27 20:37:00,,0828.8,4.99,0.00,30.8,27.3,00.0,39.3,31.8,34.2,0000.1,0015.35,0007.52,0006.61
2022-07-27 20:38:00,,0829.0,5.01,0.00,30.7,27.5,00.0,39.2,31.7,34.8,-000.3,0015.27,0007.51,0006.63
2022-07-27 20:39:00,,0828.9,5.00,0.00,30.7,27.6,00.0,39.2,31.7,35.1,-000.7,0015.26,0007.51,0006.64
2022-07-27 20:40:00,,0828.5,5.01,0.00,30.7,27.9,00.0,39.2,31.8,35.4,-000.3,0015.58,0007.48,0006.61
2022-07-27 20:41:00,,0828.6,4.98,0.00,31.0,28.1,00.0,39.2,32.0,34.9,0000.0,0015.13,0007.45,0006.62
2022-07-27 20:42:00,,0828.5,5.00,0.00,31.2,28.3,00.0,39.2,32.1,35.1,0000.0,0015.50,0007.44,0006.61
2022-07-27 20:43:00,,0828.6,5.00,0.00,31.4,28.4,00.0,39.2,32.3,34.5,0000.0,0014.72,0007.40,0006.60
2022-07-27 20:44:00,,0828.5,5.00,0.00,31.6,28.5,00.0,39.3,32.3,34.2,0000.0,0014.10,0007.37,0006.60
2022-07-27 20:45:00,,0828.5,4.99,0.00,31.6,28.0,00.0,39.3,32.2,34.4,-000.1,0014.24,0007.39,0006.58
2022-07-27 20:46:00,,0828.5,5.01,0.00,31.6,27.5,00.0,39.3,32.1,35.0,-000.0,0013.50,0007.33,0006.54
2022-07-27 20:47:00,,0828.5,5.00,0.00,31.6,27.3,00.0,39.3,32.1,34.7,-000.4,0013.08,0007.30,0006.51
2022-07-27 20:48:00,,0828.4,4.99,0.00,31.6,27.4,00.0,39.3,32.0,34.4,-001.1,0012.54,0007.27,0006.49
2022-07-27 20:49:00,,0828.5,5.00,0.00,31.6,27.6,00.0,39.4,31.9,34.8,-000.5,0013.13,0007.25,0006.46
2022-07-27 20:50:00,,0828.4,4.99,0.00,31.6,27.8,00.0,39.4,32.0,35.2,0000.4,0013.57,0007.24,0006.45
2022-07-27 20:51:00,,0828.4,5.02,0.00,31.7,28.0,00.0,39.5,32.1,35.4,0000.9,0014.45,0007.25,0006.44
2022-07-27 20:52:00,,0828.3,5.00,0.00,31.9,28.2,00.0,39.5,32.3,33.8,0001.2,0015.27,0007.21,0006.41
2022-07-27 20:53:00,,0828.5,4.99,0.00,32.0,28.4,00.0,39.6,32.3,34.1,0001.4,0015.77,0007.21,0006.40
2022-07-27 20:54:00,,0828.4,5.00,0.00,32.1,28.5,00.0,39.6,32.3,33.8,0000.9,0015.81,0007.21,0006.39
2022-07-27 20:55:00,,0828.4,5.02,0.00,32.1,28.1,00.0,39.6,32.3,33.5,0001.0,0015.71,0007.19,0006.39
2022-07-27 20:56:00,,0828.3,4.99,0.00,32.0,27.5,00.0,39.6,32.2,33.9,0001.0,0015.71,0007.21,0006.41
2022-07-27 20:57:00,,0828.4,5.01,0.00,32.0,27.4,00.0,39.6,32.1,33.6,0001.2,0015.72,0007.23,0006.44
2022-07-27 20:58:00,,0828.3,5.00,0.00,31.8,27.4,00.0,39.7,32.0,34.2,0001.5,0015.89,0007.31,0006.46
2022-07-27 20:59:00,,0828.4,5.00,0.00,31.7,27.5,00.0,39.7,32.0,34.2,0002.3,0015.94,0007.33,0006.47
